Location: Goettingen
(51.5300°N, 9.9433°E)
Time: 21:32:35
(UTC+02:00)

ISS - Pass Details

Date: 25 July 2021
Orbit: 419 x 421 km, 51.6° (Epoch: 28 July)

Event Time Altitude Azimuth Distance (km) Brightness Sun altitude
Rises 23:06:02 0° 284° (WNW) 2,373 0.9 -12.6°
Reaches altitude 10° 23:08:11 10° 278° (W) 1,506 -0.4 -12.8°
Maximum altitude 23:11:25 44° 205° (SSW) 588 -3.3 -13.1°
Enters shadow 23:12:57 25° 146° (SE) 882 -2.7 -13.2°
